Regional Weather Roundup
Issued by NWS Midland/Odessa, TX

Skip options and go directly to product.
Home | Oldest Version | Previous Version | Current Version | All | Text Only | Save Text | Print | Product List | Glossary Off

Skip product version selection by date and time.   

259
ASUS44 KMAF 310201
RWRMAF
MIDLAND AREA WEATHER ROUNDUP
NATIONAL WEATHER SERVICE MIDLAND TX
900 PM CDT MON MAR 30 2015

...IN SOUTHWEST TEXAS AND SOUTHEAST NEW MEXICO...

CITY           SKY/WX    TMP DP  RH WIND       PRES   REMARKS
ALPINE         CLOUDY    70  43  37 E5        30.20R
ANDREWS        FAIR      69  54  58 S5        30.07S
ARTESIA        CLOUDY    64  50  59 SE8       30.07R
BIG SPRING     CLOUDY    79  53  40 NW3       30.06R
CARLSBAD       CLOUDY    66  51  58 SE3       30.05S
DRYDEN           N/A     67  61  81 E5        30.08R
FORT STOCKTON  CLOUDY    74  37  26 W6        30.06R
GUAD PASS      CLOUDY    65  44  46 NE7       30.19R
HOBBS          CLOUDY    64  48  55 CALM      30.10R
MARFA          CLOUDY    66  34  30 E3        30.18S
MIDLAND AIRPK  CLOUDY    77  53  42 CALM      30.06S
MIDLAND INTL   CLOUDY    72  56  57 E3        30.05R
ODESSA         CLOUDY    73  52  47 CALM      30.07R
PECOS          CLOUDY    70  53  55 E7        30.03F
PRESIDIO       FAIR      77  41  27 CALM      30.02S
SEMINOLE       CLOUDY    65  53  64 S6        30.09R
SNYDER         CLOUDY    75  52  44 SE8       30.04S
WINK           CLOUDY    70  53  54 CALM      30.04R
$$
...OTHER STATIONS IN TEXAS...

CITY           SKY/WX    TMP DP  RH WIND       PRES   REMARKS
ABILENE        MOCLDY    71  55  56 S8        30.03R
AMARILLO       PTCLDY    67  38  34 S14       30.04R
AUSTIN         MOCLDY    66  61  84 S7        30.06R
BROWNSVILLE    CLEAR     70  67  90 SE7       30.09R
CORPUS CHRISTI PTCLDY    70  66  87 SE16      30.09R
DALLAS FTW     CLOUDY    70  63  78 SE9       30.02S
DEL RIO        MOCLDY    73  62  68 CALM      30.03R
EL PASO        MOCLDY    78  26  14 S7        30.05R
HOUSTON INT    PTCLDY    74  61  63 S8        30.10R
LUBBOCK        MOCLDY    66  48  52 S7        30.05R
SAN ANGELO     MOCLDY    77  54  44 S9        30.02R
SAN ANTONIO    PTCLDY    74  63  68 S7        30.08R
WACO           CLEAR     70  63  78 S9        30.05R
WICHITA FALLS  NOT AVBL
$$
...OTHER LOCATIONS IN NEW MEXICO...

CITY           SKY/WX    TMP DP  RH WIND       PRES   REMARKS
ALAMAGORDO     MOCLDY    75  25  15 SW6       30.09R
ALBUQUERQUE    MOCLDY    72  18  13 CALM      30.11S
CANNON AFB     CLEAR     64  41  42 SW7       30.08R
CLOVIS         CLEAR     64  43  45 S12       30.07R
HOLLOMAN AFB   MOCLDY    78  25  14 E3        30.05F
ROSWELL        MOCLDY    67  47  48 S8        30.07R
RUIDOSO        MOCLDY    59  25  27 SW12      30.25S
SANTA FE       MOCLDY    58  19  22 NW6       30.16S
TRUTH OR CONSE CLOUDY    73  25  16 NE10      30.10R
TUCUMCARI      PTCLDY    67  31  26 E5        30.04R
$$

USA.gov is the U.S. government's official web portal to all federal, state and local government web resources and services.